Content
SEND FEEDBACK

Daily
Averages
Monthly
Summary
United States of America

UPI, GUAM


Home > North America > United States > Guam
Elevation: 53 feet     Latitude: 13 34N     Longitude: 144 55E

WEATHER
 
SELECT A DAY
Number of Records: 209,379;   Date Range: 1/1/95 - 9/21/14
 
SHARE

PRINT THIS DATA

[ ← Previous Day ]
WEATHER ALMANAC - JANUARY 10, 2013
[ Next Day → ]
[ °C ]   °F
Weather ElementAverageHighLow
Temperature78.9 °F82.9 °F (12:54 pm)75.2 °F (8:47 am)
Dewpoint75.1 °F78.8 °F (1:07 pm)72 °F (1:54 am)
Humidity88.2 %100 % (8:47 am)79 % (12:09 pm)
Barometer29.83 in29.88 in (8:47 am)29.76 in (2:54 pm)
Wind Speed11.6 mph19.6 mph (10:44 am)
Wind Gust31.1 mph (1:07 pm)
Weather ElementAverage
Visibility8.5 mi
Wind DirectionE (87.3 °)

Weather ElementTotal
Precipitation0.28 in
Cooling Degree Days14.1 (Base 65)
Growing Degree Days29.1 (Base 50)
Averaged from 40 records on January 10, 2013
WEATHER CONDITIONS BREAKOUT
WIND DIRECTION BREAKOUT
WEATHER BY HOUR - JANUARY 10, 2013
[ °C ]   °F
Local TimeTemperatureDewpointHumidityBarometerVisibilityWind DirectionWind SpeedGust SpeedPrecipitationEventsConditions
1:54 AM77.0 °F72.0 °F84 %29.81 in10.0 miEast (80°)6.9 mph0.00 inScattered Clouds
2:54 AM75.9 °F72.0 °F87 %29.79 in10.0 miEast (80°)5.8 mphPartly Cloudy
3:54 AM75.9 °F72.0 °F87 %29.78 in10.0 miENE (70°)5.8 mphPartly Cloudy
4:54 AM75.9 °F72.0 °F87 %29.78 in10.0 miENE (70°)4.6 mphClear
5:54 AM77.0 °F73.9 °F90 %29.80 in9.0 miENE (70°)5.8 mph0.00 inRainLight Rain
6:54 AM75.9 °F73.9 °F94 %29.82 in10.0 miENE (70°)6.9 mph0.00 inClear
7:54 AM78.1 °F75.0 °F90 %29.83 in10.0 miEast (80°)5.8 mphScattered Clouds
8:38 AM77.0 °F75.2 °F94 %29.87 in9.0 miEast (80°)18.4 mph24.2 mphOvercast
8:47 AM75.2 °F75.2 °F100 %29.88 in1.8 miEast (80°)12.7 mph25.3 mph0.00 inRainRain
8:54 AM75.9 °F75.0 °F97 %29.85 in2.5 miEast (80°)9.2 mph0.01 inRainLight Rain
8:58 AM75.2 °F75.2 °F100 %29.87 in3.0 miEast (80°)9.2 mph0.00 inRainLight Rain
9:54 AM78.1 °F75.0 °F90 %29.85 in3.0 miEast (90°)12.7 mph19.6 mphRainLight Rain
10:01 AM78.8 °F75.2 °F89 %29.87 in6.0 miEast (80°)8.1 mph0.00 inRainLight Rain
10:15 AM78.8 °F75.2 °F89 %29.86 in10.0 miEast (90°)10.4 mph0.00 inOvercast
10:22 AM78.8 °F75.2 °F89 %29.86 in10.0 miEast (90°)10.4 mph0.00 inOvercast
10:44 AM78.8 °F77.0 °F94 %29.86 in2.0 miEast (90°)19.6 mph24.2 mph0.06 inRainLight Rain
10:54 AM78.1 °F77.0 °F96 %29.83 in3.0 miEast (90°)15.0 mph0.07 inRainRain
11:10 AM78.8 °F77.0 °F94 %29.85 in9.0 miEast (90°)9.2 mph19.6 mph0.00 inRainLight Rain
11:54 AM81.0 °F75.9 °F85 %29.81 in10.0 miEast (100°)13.8 mph0.00 inOvercast
12:09 PM82.4 °F75.2 °F79 %29.83 in10.0 miESE (110°)15.0 mph21.9 mphOvercast
12:52 PM82.4 °F77.0 °F84 %29.82 in10.0 miEast (90°)13.8 mph23.0 mphOvercast
12:54 PM82.9 °F77.0 °F82 %29.79 in10.0 miEast (90°)16.1 mph23.0 mphOvercast
1:07 PM82.4 °F78.8 °F89 %29.81 in5.0 miEast (100°)19.6 mph31.1 mph0.00 inRainLight Rain
1:52 PM78.8 °F75.2 °F89 %29.81 in9.0 miESE (110°)12.7 mph23.0 mph0.04 inRainLight Rain
1:54 PM78.1 °F75.0 °F90 %29.79 in9.0 miESE (110°)11.5 mph0.04 inRainLight Rain
2:54 PM82.0 °F75.9 °F82 %29.76 in10.0 miEast (80°)15.0 mph25.3 mph0.00 inScattered Clouds
3:54 PM80.1 °F75.0 °F85 %29.77 in10.0 miEast (90°)12.7 mphMostly Cloudy
4:54 PM81.0 °F75.9 °F85 %29.79 in10.0 miEast (100°)11.5 mph18.4 mphClear
5:54 PM81.0 °F73.9 °F79 %29.80 in10.0 miEast (90°)11.5 mphScattered Clouds
6:03 PM80.6 °F75.2 °F84 %29.82 in10.0 miEast (80°)12.7 mphMostly Cloudy
6:26 PM80.6 °F75.2 °F84 %29.82 in10.0 miEast (80°)13.8 mphMostly Cloudy
6:54 PM80.1 °F75.0 °F85 %29.81 in10.0 miEast (80°)13.8 mphPartly Cloudy
7:54 PM79.0 °F75.9 °F90 %29.82 in10.0 miEast (80°)11.5 mph0.02 inPartly Cloudy
8:50 PM78.8 °F75.2 °F89 %29.85 in10.0 miEast (90°)10.4 mphMostly Cloudy
8:54 PM80.1 °F75.0 °F85 %29.83 in10.0 miEast (90°)10.4 mphMostly Cloudy
9:19 PM78.8 °F73.4 °F83 %29.86 in10.0 miEast (90°)11.5 mph0.02 inMostly Cloudy
9:54 PM79.0 °F75.0 °F88 %29.84 in10.0 miEast (90°)13.8 mph20.7 mph0.02 inMostly Cloudy
10:05 PM80.6 °F75.2 °F84 %29.86 in10.0 miEast (100°)15.0 mphMostly Cloudy
10:54 PM79.0 °F75.9 °F90 %29.85 in10.0 miEast (90°)10.4 mphOvercast
11:54 PM79.0 °F73.9 °F84 %29.84 in10.0 miEast (90°)10.4 mphPartly Cloudy
Hourly data recorded from PGUM, located miles away from Upi, Guam







STORIES FROM OUR PARTNERS